Temp
-12 -12 -10 -10 -10 -11 -11 -11 -11 -11 -11 -12 -11 -11 -11 -13 -13 -11 -11 -10 -10 -10 -11 -11 -11 -11 -11 -12 -13 -13 -13 -13 -13 -13 -13 -13 -13 -13 -13 -12 -12 -13 -13 -13
-13 -11 -9 -11 -12 -12 -12 -11 -10 -11 -12 -12 -12 -11 -12 -13 -12 -11 -10 -10 -10 -10 -11 -11 -11 -10 -11 -12 -12 -13 -13 -13 -13 -13 -13 -13 -13 -12 -12 -12 -12 -13 -13 -13
-12 -8 -12 -12 -12 -12 -11 -11 -11 -11 -12 -13 -12 -11 -12 -13 -11 -11 -10 -10 -11 -11 -11 -11 -10 -11 -11 -11 -12 -12 -12 -12 -12 -13 -12 -12 -12 -12 -12 -12 -13 -13 -13 -13
-12 -11 -12 -12 -12 -12 -11 -11 -12 -13 -13 -12 -13 -10 -11 -11 -11 -10 -10 -10 -11 -11 -11 -11 -11 -11 -11 -11 -11 -11 -12 -12 -12 -12 -12 -12 -12 -12 -12 -12 -12 -13 -13 -13
-10 -11 -11 -12 -11 -12 -11 -13 -13 -13 -13 -12 -12 -11 -8 -11 -10 -10 -10 -11 -11 -11 -10 -11 -11 -12 -11 -11 -11 -11 -11 -12 -12 -12 -12 -12 -12 -12 -12 -12 -13 -13 -13 -13
-12 -12 -13 -11 -12 -12 -13 -13 -12 -12 -12 -12 -10 -12 -9 -10 -11 -11 -11 -12 -11 -11 -11 -11 -12 -12 -11 -11 -11 -11 -11 -11 -12 -12 -12 -12 -12 -12 -12 -13 -13 -13 -13 -13
-13 -11 -11 -12 -12 -12 -13 -13 -11 -12 -13 -9 -10 -11 -9 -10 -11 -10 -11 -11 -11 -11 -12 -11 -12 -11 -11 -10 -11 -11 -11 -11 -11 -12 -12 -12 -12 -12 -12 -13 -13 -13 -13 -13
-13 -12 -11 -11 -11 -11 -12 -12 -11 -11 -11 -10 -11 -9 -8 -10 -11 -11 -11 -10 -11 -11 -11 -11 -11 -11 -11 -11 -11 -11 -11 -11 -12 -12 -12 -12 -12 -12 -13 -13 -13 -13 -13 -13
-14 -12 -12 -12 -12 -12 -12 -11 -12 -12 -11 -11 -10 -9 -9 -10 -11 -10 -11 -11 -11 -12 -11 -11 -11 -11 -11 -11 -11 -11 -11 -11 -12 -12 -12 -12 -12 -12 -13 -12 -13 -13 -13 -14
-14 -12 -13 -13 -13 -12 -11 -13 -12 -11 -10 -10 -9 -9 -9 -10 -10 -10 -10 -11 -12 -11 -11 -11 -11 -11 -11 -11 -11 -11 -11 -12 -12 -12 -12 -12 -12 -12 -12 -12 -12 -12 -13 -14
-15 -13 -13 -14 -11 -11 -12 -11 -11 -12 -11 -10 -9 -8 -10 -10 -10 -11 -11 -11 -11 -11 -11 -11 -11 -11 -11 -11 -11 -11 -12 -12 -12 -12 -13 -12 -12 -12 -12 -12 -13 -13 -13 -13
-16 -13 -14 -12 -12 -12 -12 -12 -11 -11 -10 -10 -10 -9 -10 -11 -11 -11 -11 -11 -11 -11 -10 -11 -11 -11 -11 -11 -11 -11 -12 -12 -12 -12 -12 -12 -12 -12 -12 -12 -13 -13 -13 -13
-16 -14 -15 -14 -13 -13 -11 -11 -11 -12 -11 -10 -10 -10 -11 -11 -11 -11 -11 -11 -11 -10 -11 -11 -11 -11 -11 -11 -12 -11 -12 -12 -12 -12 -12 -12 -12 -13 -12 -12 -12 -12 -13 -13
-16 -15 -13 -14 -12 -12 -11 -11 -11 -11 -10 -10 -9 -11 -11 -11 -11 -12 -12 -11 -11 -11 -11 -11 -11 -11 -10 -11 -11 -11 -11 -12 -12 -12 -12 -12 -12 -12 -12 -12 -12 -12 -12 -13
-16 -15 -13 -13 -13 -12 -11 -11 -10 -10 -10 -10 -10 -11 -11 -12 -12 -11 -12 -12 -11 -11 -11 -11 -11 -11 -11 -11 -11 -11 -11 -11 -12 -12 -12 -12 -12 -12 -12 -12 -12 -12 -12 -13
-17 -16 -13 -13 -13 -12 -11 -11 -11 -10 -11 -10 -10 -11 -11 -12 -12 -12 -12 -12 -12 -11 -11 -11 -11 -11 -11 -11 -11 -11 -11 -11 -12 -12 -11 -12 -12 -12 -12 -12 -12 -12 -12 -12
-19 -16 -14 -15 -13 -13 -12 -11 -10 -10 -11 -10 -11 -12 -12 -11 -12 -12 -12 -12 -12 -11 -11 -11 -11 -11 -11 -11 -11 -11 -11 -11 -12 -11 -11 -12 -12 -12 -12 -12 -12 -12 -12 -12
-19 -17 -15 -15 -14 -13 -12 -11 -11 -11 -11 -10 -11 -12 -13 -12 -13 -12 -12 -13 -12 -11 -12 -11 -11 -11 -11 -11 -11 -11 -11 -11 -11 -12 -12 -12 -12 -12 -12 -12 -12 -12 -12 -12
-19 -18 -17 -16 -15 -13 -12 -12 -11 -11 -11 -10 -11 -12 -12 -12 -12 -11 -11 -12 -13 -12 -12 -11 -11 -11 -11 -11 -11 -11 -11 -11 -11 -12 -12 -12 -12 -12 -12 -12 -12 -12 -12 -12
-19 -18 -17 -16 -15 -14 -13 -13 -12 -11 -11 -10 -11 -12 -12 -11 -10 -11 -11 -12 -13 -12 -11 -11 -11 -11 -11 -11 -11 -11 -11 -11 -11 -12 -12 -12 -12 -12 -12 -12 -12 -12 -12 -12
-19 -18 -17 -16 -15 -15 -14 -13 -13 -12 -11 -10 -11 -12 -11 -10 -11 -11 -11 -11 -13 -12 -12 -12 -11 -11 -11 -11 -11 -12 -12 -12 -12 -11 -12 -12 -12 -12 -12 -12 -12 -12 -12 -12
-20 -19 -17 -16 -15 -16 -15 -13 -13 -12 -11 -10 -11 -12 -11 -10 -11 -11 -11 -12 -12 -12 -12 -11 -11 -11 -11 -11 -11 -12 -12 -12 -12 -12 -12 -12 -12 -12 -12 -12 -12 -12 -12 -12
-20 -19 -18 -16 -16 -15 -16 -14 -13 -12 -11 -11 -11 -11 -11 -11 -11 -11 -11 -10 -12 -12 -12 -11 -12 -11 -11 -11 -11 -11 -12 -12 -12 -12 -12 -12 -12 -12 -12 -12 -12 -12 -12 -12
-20 -19 -18 -17 -17 -16 -16 -14 -13 -12 -12 -11 -11 -11 -11 -11 -11 -11 -10 -10 -11 -12 -12 -12 -12 -11 -11 -11 -11 -11 -12 -11 -12 -12 -12 -12 -12 -12 -12 -12 -12 -12 -12 -12
-20 -19 -19 -18 -17 -17 -16 -15 -14 -12 -12 -12 -12 -11 -11 -11 -11 -11 -11 -11 -11 -11 -11 -11 -11 -12 -11 -11 -11 -11 -11 -11 -11 -11 -12 -12 -12 -12 -12 -12 -12 -12 -12 -12
-19 -18 -19 -18 -17 -16 -16 -15 -14 -14 -12 -12 -12 -11 -12 -12 -12 -12 -11 -11 -11 -11 -11 -11 -12 -12 -12 -11 -11 -11 -11 -11 -11 -11 -11 -12 -12 -12 -12 -12 -12 -12 -12 -12
Height
5727 5731 5738 5748 5752 5755 5759 5759 5763 5769 5775 5780 5782 5780 5783 5787 5784 5784 5786 5789 5789 5790 5790 5790 5789 5788 5786 5783 5780 5778 5774 5770 5767 5763 5758 5753 5748 5744 5738 5733 5728 5724 5720 5715
5712 5718 5739 5744 5741 5744 5748 5750 5754 5761 5767 5770 5772 5770 5772 5777 5777 5778 5781 5784 5785 5785 5785 5784 5783 5783 5781 5777 5774 5771 5768 5764 5761 5757 5752 5748 5743 5737 5732 5727 5723 5719 5714 5710
5701 5720 5733 5731 5733 5733 5737 5739 5749 5755 5759 5759 5758 5758 5759 5769 5770 5772 5776 5779 5780 5780 5781 5779 5779 5778 5774 5771 5768 5766 5762 5759 5756 5752 5748 5743 5737 5732 5727 5723 5719 5713 5708 5703
5689 5710 5708 5715 5718 5724 5726 5734 5737 5742 5744 5748 5749 5740 5747 5762 5764 5767 5771 5773 5774 5776 5775 5775 5775 5771 5769 5765 5763 5760 5757 5754 5751 5747 5742 5737 5732 5728 5723 5719 5714 5708 5703 5698
5685 5690 5694 5703 5717 5722 5725 5723 5728 5732 5731 5737 5742 5736 5750 5755 5758 5764 5766 5767 5769 5770 5769 5770 5770 5766 5764 5760 5758 5755 5753 5750 5746 5742 5737 5732 5728 5723 5719 5714 5709 5703 5698 5694
5666 5677 5686 5700 5705 5712 5715 5713 5716 5721 5727 5721 5736 5733 5748 5753 5755 5756 5760 5762 5764 5765 5765 5766 5764 5762 5758 5756 5753 5751 5748 5745 5742 5737 5732 5729 5723 5720 5715 5710 5704 5699 5695 5691
5649 5662 5675 5683 5691 5698 5700 5702 5706 5711 5712 5719 5728 5731 5746 5747 5749 5752 5754 5756 5759 5760 5762 5762 5760 5757 5753 5752 5749 5747 5744 5742 5737 5732 5729 5725 5722 5717 5712 5707 5702 5696 5693 5691
5635 5649 5662 5673 5681 5692 5698 5701 5701 5703 5709 5714 5729 5721 5740 5743 5742 5748 5749 5753 5755 5756 5757 5758 5755 5752 5750 5748 5745 5743 5741 5738 5733 5730 5726 5723 5719 5714 5710 5705 5699 5694 5693 5692
5620 5638 5654 5666 5676 5684 5690 5685 5700 5703 5705 5711 5719 5723 5734 5738 5738 5742 5746 5750 5751 5753 5754 5754 5750 5748 5746 5745 5742 5741 5738 5734 5730 5727 5724 5721 5717 5713 5709 5704 5699 5695 5693 5692
5606 5624 5640 5652 5662 5671 5678 5692 5692 5693 5698 5703 5714 5717 5728 5734 5736 5737 5743 5746 5747 5749 5752 5748 5746 5745 5743 5742 5740 5739 5736 5732 5729 5726 5723 5720 5716 5713 5708 5705 5701 5697 5695 5693
5598 5611 5626 5636 5650 5660 5668 5673 5676 5687 5693 5698 5707 5715 5725 5728 5730 5734 5740 5742 5744 5748 5748 5744 5743 5742 5741 5740 5738 5736 5733 5730 5728 5725 5721 5719 5715 5712 5708 5706 5703 5700 5697 5696
5586 5599 5614 5635 5644 5655 5664 5674 5681 5686 5691 5697 5703 5714 5720 5721 5725 5731 5736 5739 5742 5745 5743 5742 5740 5739 5739 5737 5735 5734 5732 5730 5727 5724 5720 5719 5714 5711 5708 5707 5704 5702 5700 5699
5576 5588 5605 5618 5631 5644 5653 5663 5670 5675 5682 5689 5699 5710 5715 5718 5723 5730 5733 5736 5740 5741 5740 5739 5737 5737 5736 5734 5733 5732 5730 5729 5726 5723 5721 5718 5714 5711 5710 5708 5706 5704 5703 5702
5568 5582 5597 5614 5631 5642 5648 5651 5659 5667 5675 5685 5695 5706 5712 5716 5720 5727 5731 5735 5738 5738 5737 5736 5735 5735 5734 5733 5732 5731 5729 5727 5725 5723 5721 5718 5715 5713 5712 5711 5709 5707 5706 5705
5565 5577 5592 5607 5620 5631 5639 5647 5654 5661 5670 5679 5694 5701 5706 5712 5717 5721 5727 5732 5735 5736 5735 5733 5734 5734 5733 5732 5731 5730 5729 5727 5725 5723 5721 5719 5718 5716 5715 5714 5713 5710 5709 5708
5559 5571 5586 5604 5613 5623 5631 5640 5649 5657 5664 5678 5687 5694 5700 5706 5713 5720 5724 5729 5731 5733 5732 5731 5733 5734 5732 5732 5730 5729 5729 5727 5725 5724 5722 5721 5720 5718 5717 5716 5715 5713 5712 5710
5556 5566 5581 5597 5605 5616 5626 5638 5645 5652 5663 5673 5682 5692 5697 5702 5709 5717 5722 5726 5728 5730 5730 5730 5732 5733 5732 5731 5730 5729 5729 5728 5727 5726 5724 5722 5721 5719 5718 5718 5716 5715 5714 5713
5552 5562 5574 5587 5598 5610 5623 5632 5639 5651 5661 5672 5677 5681 5690 5700 5706 5710 5716 5721 5725 5728 5728 5729 5730 5732 5731 5731 5730 5729 5729 5729 5728 5727 5726 5725 5724 5723 5722 5720 5720 5719 5718 5716
5549 5557 5568 5582 5594 5609 5619 5625 5632 5643 5654 5664 5673 5676 5683 5691 5698 5706 5712 5716 5722 5726 5725 5727 5729 5731 5731 5730 5730 5729 5729 5730 5729 5729 5728 5727 5727 5727 5726 5724 5723 5723 5722 5720
5547 5553 5564 5578 5591 5602 5607 5619 5627 5643 5650 5659 5667 5674 5680 5687 5692 5703 5711 5713 5718 5722 5723 5726 5728 5730 5730 5730 5730 5730 5730 5730 5730 5730 5730 5730 5730 5730 5730 5729 5727 5727 5726 5725
5544 5550 5561 5574 5586 5594 5603 5614 5624 5636 5646 5652 5663 5670 5677 5685 5695 5699 5705 5709 5715 5720 5721 5724 5726 5728 5729 5729 5730 5730 5730 5731 5731 5731 5732 5733 5733 5733 5733 5733 5732 5731 5731 5730
5542 5550 5559 5569 5580 5592 5599 5609 5619 5628 5641 5650 5659 5667 5674 5682 5689 5695 5700 5703 5708 5717 5718 5722 5724 5726 5727 5728 5729 5730 5731 5731 5732 5733 5733 5734 5735 5735 5736 5735 5736 5735 5735 5735
5544 5549 5557 5568 5576 5585 5594 5602 5612 5627 5637 5646 5655 5664 5671 5678 5686 5692 5698 5700 5704 5710 5716 5718 5721 5723 5725 5726 5728 5729 5731 5731 5732 5733 5734 5735 5736 5737 5737 5738 5739 5739 5739 5739
5540 5548 5555 5562 5571 5579 5589 5597 5607 5621 5633 5642 5651 5661 5668 5675 5682 5689 5693 5698 5702 5705 5711 5715 5718 5721 5723 5725 5727 5728 5730 5731 5732 5733 5735 5736 5737 5738 5739 5741 5742 5743 5743 5744
5537 5546 5551 5558 5568 5575 5583 5595 5605 5616 5629 5638 5647 5656 5664 5671 5678 5684 5689 5694 5699 5701 5706 5711 5715 5718 5721 5723 5725 5726 5728 5730 5732 5733 5735 5736 5738 5739 5741 5742 5744 5746 5747 5748
5536 5545 5551 5557 5565 5574 5582 5592 5600 5611 5623 5633 5642 5652 5660 5667 5673 5680 5685 5690 5696 5699 5703 5707 5711 5714 5717 5720 5722 5724 5726 5729 5731 5732 5734 5736 5738 5739 5741 5743 5745 5747 5749 5750
Wind_Speed
58 61 57 58 58 62 64 64 62 59 59 56 49 46 46 40 34 38 35 28 24 22 23 22 24 27 25 23 21 24 28 33 28 31 33 33 32 31 31 33 32 30 31 32
62 59 43 46 60 59 60 63 64 64 59 55 53 49 46 27 33 31 30 25 21 18 21 24 28 25 24 23 22 21 26 27 29 31 32 31 30 30 33 29 29 30 32 32
67 49 44 45 48 51 53 58 56 56 55 52 51 48 41 26 29 27 27 24 20 19 23 27 25 21 21 20 16 19 23 25 28 30 28 28 28 30 26 28 30 30 30 28
64 54 56 52 49 48 47 44 46 47 55 48 47 50 46 25 29 25 22 22 19 21 20 24 19 16 18 15 17 21 22 23 25 25 25 25 28 27 26 28 28 29 27 26
63 61 59 54 46 37 34 37 38 45 54 47 42 52 26 23 24 20 20 20 22 19 23 16 17 16 18 15 17 20 21 23 22 23 24 25 29 24 27 27 29 24 23 25
61 58 54 48 46 36 33 35 34 37 39 50 39 49 25 15 16 19 18 22 22 21 21 15 13 20 17 15 17 19 19 20 21 23 23 26 22 24 25 28 25 21 23 19
63 63 57 52 48 42 42 39 39 39 40 42 40 42 9 7 7 12 22 28 20 24 15 13 15 17 15 15 16 16 18 18 21 21 22 22 21 22 24 22 23 20 19 11
65 65 61 54 48 41 36 36 40 39 38 42 23 39 19 15 18 17 23 21 22 20 14 14 12 12 13 14 13 17 15 18 19 19 22 18 19 20 21 20 24 18 11 4
65 65 57 53 47 42 35 42 30 31 35 32 29 29 18 16 18 18 19 15 23 17 16 14 9 11 11 10 14 12 14 17 17 19 17 15 15 19 19 20 20 12 4 6
65 66 60 54 50 47 42 28 34 39 38 35 27 28 16 16 18 23 11 19 22 19 16 7 8 8 9 11 9 10 15 15 16 16 13 14 15 19 17 17 13 9 9 9
63 66 64 59 55 52 50 47 47 41 38 35 29 26 13 15 20 20 15 22 22 19 13 5 5 7 7 10 7 10 13 12 15 14 12 15 17 17 14 13 8 10 11 12
66 65 60 57 54 50 48 43 38 37 37 34 31 21 15 19 25 17 20 20 17 15 8 5 4 4 6 7 5 9 11 11 14 14 13 15 17 17 9 10 10 12 10 11
67 67 59 57 57 55 51 47 47 47 44 41 36 25 19 21 25 20 24 22 17 12 5 4 2 2 7 5 3 8 10 10 13 13 12 13 16 9 9 12 11 10 10 11
67 65 64 58 51 49 52 54 49 47 45 42 33 20 19 21 26 24 25 22 15 10 4 2 2 2 6 4 3 7 9 10 11 13 12 12 10 13 10 13 14 12 11 8
65 65 63 57 56 51 49 50 50 48 43 39 26 20 24 26 28 27 25 21 14 9 5 4 2 1 5 5 4 6 8 9 9 10 10 10 11 16 14 11 11 14 13 9
60 64 63 54 55 55 49 46 47 46 41 30 26 30 30 32 27 26 26 21 13 11 5 4 3 2 6 6 6 5 8 7 8 9 8 10 8 8 10 10 8 13 12 11
55 63 63 57 56 55 55 44 45 45 35 33 35 32 32 30 29 27 26 19 16 11 4 4 4 4 5 6 7 6 7 7 6 8 9 10 12 15 14 14 12 9 14 13
56 61 62 59 57 55 52 46 45 40 31 33 42 44 37 29 31 34 28 20 19 13 5 5 4 6 5 6 7 7 6 6 6 8 9 13 14 14 16 17 15 14 11 13
47 60 60 57 58 53 52 48 47 42 36 38 46 49 43 37 35 32 28 24 19 14 9 6 6 7 6 6 7 8 6 5 6 8 9 11 11 12 13 17 17 16 17 21
42 51 59 58 58 55 53 49 45 40 37 41 47 50 45 39 39 33 27 24 20 18 9 5 8 9 7 5 7 8 6 6 5 8 11 11 11 11 12 14 16 16 18 21
41 46 50 60 59 60 57 51 40 44 43 44 46 47 44 38 35 34 30 25 18 16 12 9 10 9 8 6 3 6 6 6 6 7 8 9 10 10 12 13 13 15 17 19
34 41 46 53 61 59 53 55 49 45 45 44 43 48 44 39 38 35 33 28 21 18 15 10 8 11 8 7 5 3 5 4 5 6 6 6 6 7 8 9 10 13 15 16
29 31 39 46 52 58 53 57 56 46 45 44 41 44 46 44 40 37 33 31 24 19 18 14 12 8 11 8 7 4 3 4 5 5 5 5 5 6 9 12 12 13 16 17
32 25 31 38 40 46 59 57 55 51 43 44 42 41 43 40 41 38 36 31 29 25 22 19 15 10 10 11 9 6 5 4 5 5 5 5 5 7 9 12 14 15 16 18
28 31 28 33 33 38 51 58 51 51 50 43 42 40 41 38 38 37 35 30 30 26 24 23 17 14 11 14 11 9 7 8 7 7 5 5 7 8 10 12 12 13 15 15
26 38 26 30 34 37 40 51 52 55 49 50 43 43 41 39 37 34 32 29 29 29 27 25 21 19 16 14 16 12 9 10 9 8 8 7 7 10 10 11 11 11 10 8
Wind_Direction
242 240 245 249 252 252 253 256 257 261 262 265 271 272 273 279 267 270 263 267 258 270 267 268 270 264 281 292 294 291 297 298 303 305 306 310 312 314 319 320 319 311 311 312
235 244 253 253 247 251 253 255 255 259 262 268 269 264 270 254 257 263 253 261 257 276 265 270 264 273 288 291 292 292 295 300 302 300 307 309 312 320 323 320 312 311 312 311
240 251 251 251 245 250 254 256 258 260 263 263 264 262 248 244 250 251 246 253 259 283 276 260 263 278 301 291 287 292 296 301 297 299 306 310 319 322 324 317 313 313 313 312
237 238 237 237 239 241 250 253 249 252 258 259 265 257 243 235 242 244 240 243 260 268 250 256 266 305 297 299 297 295 298 300 300 306 308 317 321 321 319 313 316 315 314 314
234 236 236 234 243 247 260 256 249 247 252 256 256 250 234 227 233 241 240 243 265 259 248 254 276 305 293 297 297 294 299 301 308 310 315 322 323 319 317 319 320 319 317 314
225 230 233 238 232 235 247 241 235 239 246 250 234 241 240 213 236 241 235 247 258 241 243 252 281 293 303 293 301 295 303 305 313 315 321 324 322 319 320 323 325 328 322 319
219 223 225 223 223 223 228 221 223 227 232 235 235 238 173 182 261 243 240 244 240 236 248 266 278 296 304 296 304 300 303 311 320 324 327 327 322 325 326 334 334 327 329 326
213 217 222 222 225 226 234 233 224 220 225 232 229 236 202 251 259 246 237 245 226 232 253 264 287 315 303 304 307 304 305 321 327 332 332 324 329 334 337 340 337 332 329 330
207 214 218 218 223 222 220 222 216 218 218 227 225 236 221 238 262 259 246 236 228 235 256 268 310 311 310 312 311 302 322 330 335 337 334 339 341 346 346 349 340 335 15 32
201 208 211 213 214 213 216 218 216 217 223 233 224 233 231 242 247 255 228 208 224 243 254 281 297 308 312 316 304 318 333 342 340 341 341 346 347 351 353 352 354 51 62 56
196 203 208 208 211 215 215 208 211 217 226 234 230 229 241 242 228 232 219 228 231 241 246 280 288 306 310 315 302 330 345 352 359 357 343 351 343 347 355 0 36 50 62 66
196 200 205 208 210 212 215 221 227 231 234 240 250 247 254 214 220 212 227 225 226 226 251 258 278 314 314 323 308 337 352 351 357 350 341 352 345 348 12 12 46 49 60 71
196 200 200 199 206 208 211 217 219 224 233 234 242 240 237 196 219 214 218 227 223 223 247 222 3 342 349 340 323 344 356 349 353 348 355 356 355 30 43 39 59 57 58 74
198 200 200 202 204 210 212 214 218 226 230 231 233 222 209 192 203 203 218 230 226 215 209 155 63 21 10 13 338 349 360 357 351 360 11 10 39 53 68 52 62 62 58 68
201 200 202 202 202 207 212 215 218 223 228 229 220 194 196 190 198 207 213 221 218 210 192 107 116 66 31 25 13 9 9 3 354 12 22 36 63 58 62 48 80 58 59 78
205 202 200 200 203 205 211 213 215 216 222 210 191 177 192 191 194 200 198 206 215 206 174 110 140 128 58 30 28 39 20 9 4 20 37 54 60 52 56 47 66 63 52 70
209 202 199 198 203 204 211 212 213 215 205 190 176 173 191 187 191 198 190 201 221 212 170 126 154 156 79 46 36 56 35 24 30 55 51 65 69 68 74 65 58 65 59 55
210 204 201 197 202 205 207 211 212 210 198 183 168 179 186 186 189 192 184 194 220 224 216 153 175 177 114 67 49 59 50 41 57 73 66 70 81 77 81 82 73 72 71 65
208 211 207 201 201 202 206 209 208 202 194 179 175 184 190 187 191 195 188 182 211 226 224 180 184 181 143 93 63 55 66 60 76 83 82 77 79 85 83 88 87 81 76 74
206 215 212 201 198 202 206 208 209 196 193 184 178 190 194 191 190 187 193 185 200 222 211 185 183 192 171 120 76 60 72 82 91 89 91 88 81 79 83 84 88 84 80 80
204 217 216 207 199 203 207 206 207 199 190 185 182 192 195 193 190 190 190 184 203 221 228 205 190 188 188 168 109 69 68 92 116 113 100 86 82 78 77 75 86 87 85 83
205 214 221 214 206 208 208 210 206 200 192 189 184 192 197 199 197 195 191 180 189 220 228 206 211 189 189 186 166 103 89 107 117 138 128 108 82 71 80 79 86 92 94 91
205 207 218 218 217 210 209 213 210 203 196 198 192 191 198 203 204 201 203 191 186 203 230 218 218 208 194 183 170 152 129 118 133 137 156 140 113 90 95 98 98 97 99 100
223 209 210 217 215 216 211 212 215 204 200 198 195 191 196 201 204 205 205 202 198 195 211 225 215 225 200 200 184 182 163 146 152 142 144 161 155 128 123 114 109 106 105 102
227 215 209 217 214 213 213 213 213 212 204 202 202 190 195 198 200 202 209 206 202 194 204 218 217 219 216 206 201 208 195 183 166 158 155 152 165 161 150 143 132 123 121 113
227 215 208 217 220 219 216 213 215 215 209 207 205 198 195 199 204 207 215 216 211 202 205 207 215 215 224 212 200 205 207 196 189 175 168 178 176 179 180 175 165 151 154 140